Temp
49 49 49 49 48 49 49 49 49 50 51 51 51 51 51 52 54 69 66 70 67 56 54 58 59 58 59 62 56 52 54 55 58 48 46 45 42 44 40 42 38 36 34 32 34 35 30 49 53 43 46 52 52 55
49 49 48 48 48 48 48 49 49 50 51 50 51 51 52 52 55 65 64 70 70 60 53 60 59 60 57 57 60 57 54 54 55 51 52 52 45 44 43 34 47 34 34 33 35 36 47 48 47 52 54 53 55 58
48 48 48 48 48 48 48 49 49 50 50 50 51 51 52 53 56 63 65 66 65 59 58 57 54 61 65 61 62 59 57 58 55 61 55 52 43 47 38 38 40 41 40 37 37 40 41 47 53 56 59 58 61 64
48 47 47 47 47 48 48 49 49 50 50 51 52 52 54 57 58 64 67 72 70 64 51 51 64 58 67 67 64 64 59 61 62 63 56 52 46 50 40 38 34 36 38 36 38 45 50 54 57 58 60 62 64 65
47 47 47 47 47 48 48 49 49 50 51 52 52 52 53 56 58 66 69 70 71 67 52 51 60 62 65 64 63 65 64 62 61 55 53 49 51 48 47 41 35 37 36 35 41 47 45 51 57 58 59 62 64 64
47 47 47 47 48 48 48 49 49 50 51 51 52 53 54 55 54 74 60 70 73 71 60 49 59 58 62 63 61 61 62 61 61 57 54 52 52 47 41 35 38 40 44 44 41 48 49 53 56 62 62 65 67 65
47 47 47 47 47 48 48 49 50 50 50 50 50 51 51 53 63 63 58 65 61 73 59 52 52 58 61 61 62 60 61 59 60 56 50 52 51 51 38 32 38 42 44 46 49 52 54 58 58 65 67 69 65 69
47 47 47 47 47 48 49 49 49 49 50 49 51 52 54 55 57 61 60 56 58 68 65 50 49 54 60 58 54 64 59 59 56 55 53 50 53 48 36 38 41 43 46 49 54 58 58 62 64 66 70 71 69 68
47 47 47 47 48 48 48 49 50 49 51 51 51 51 67 65 62 61 47 53 70 67 55 56 49 45 60 57 59 60 63 49 61 53 51 54 45 35 37 38 40 42 44 49 56 57 59 58 60 63 65 67 66 66
47 47 47 47 47 47 48 49 49 49 49 49 59 62 43 59 47 49 63 58 58 61 61 56 60 50 60 58 55 56 58 53 48 51 58 45 41 47 43 43 44 45 52 57 52 49 51 51 54 58 60 63 65 65
47 47 47 47 47 48 48 48 48 49 48 66 55 49 60 49 63 58 36 41 52 50 57 59 57 52 61 54 52 59 52 55 46 47 50 44 38 45 46 46 49 52 58 58 58 55 54 53 51 54 57 59 61 61
47 47 48 48 48 48 48 49 50 63 63 61 61 60 62 60 47 38 40 51 53 48 54 54 56 57 56 62 55 54 49 51 42 52 47 39 45 52 48 46 51 52 53 56 59 59 59 58 57 55 56 57 58 58
47 48 48 48 48 48 49 49 49 51 54 66 61 48 53 43 35 43 33 45 45 53 56 54 52 56 57 60 53 53 43 44 54 45 42 42 52 54 49 49 51 55 55 54 54 57 60 59 59 57 56 56 56 54
47 48 48 47 47 47 48 48 48 55 66 54 46 35 43 40 50 54 56 56 56 57 56 58 55 56 56 51 51 44 50 51 42 36 34 48 53 54 55 56 57 56 57 57 55 54 56 58 58 58 58 58 57 55
47 47 47 47 47 47 47 48 49 64 58 49 51 38 43 50 52 53 56 56 59 61 59 56 56 56 51 45 51 47 42 40 45 43 46 54 55 55 55 56 57 56 57 57 58 58 57 57 59 58 60 59 58 56
49 49 48 47 47 47 48 52 58 59 54 50 50 43 50 48 47 52 55 54 60 61 63 61 53 48 45 49 45 41 43 42 47 53 56 56 55 56 56 56 56 56 57 58 58 58 59 58 58 59 61 60 59 57
51 50 46 47 47 48 50 56 51 41 46 47 44 53 53 52 51 53 57 57 63 60 52 54 45 45 52 46 45 53 48 52 56 56 57 57 56 56 57 56 56 56 57 57 58 58 58 60 61 61 59 60 61 60
52 48 46 47 52 52 50 52 46 40 39 47 42 48 54 56 54 55 56 60 61 58 59 51 54 48 45 45 46 52 55 58 59 58 58 58 58 57 58 56 56 57 57 57 58 59 59 59 59 60 61 61 62 61
52 51 47 48 53 52 39 42 50 40 43 47 51 54 54 54 57 59 59 60 61 61 59 57 50 50 51 56 54 55 57 57 56 57 57 58 58 57 57 56 57 57 57 57 58 58 60 60 60 61 61 61 61 61
45 45 47 48 52 47 37 43 53 47 43 46 53 51 53 53 57 57 58 59 60 58 52 51 53 56 56 58 61 59 60 60 58 55 54 57 58 57 57 57 60 58 60 58 59 45 61 61 62 62 60 59 59 58
51 49 48 52 50 49 47 46 45 47 47 46 51 52 50 55 53 53 53 60 56 55 52 56 56 56 60 61 63 62 60 60 59 59 57 56 59 60 59 59 59 60 60 60 60 57 51 59 60 61 59 57 58 59
49 47 42 47 38 44 43 46 45 49 47 47 50 53 49 46 48 51 57 53 52 55 58 57 57 56 56 57 59 60 60 60 58 55 48 51 57 57 58 60 59 59 60 60 60 58 58 59 58 58 57 54 52 57
47 47 42 39 35 36 36 47 43 45 40 43 49 44 45 47 50 55 48 54 54 59 60 59 59 60 59 59 59 59 59 59 58 59 58 60 61 61 61 60 61 58 58 59 60 59 58 45 53 54 55 54 50 45
46 37 34 34 37 31 40 37 46 43 45 43 42 38 43 45 51 48 45 49 55 58 57 56 57 56 57 56 56 57 57 59 59 59 60 59 57 57 59 60 61 61 61 61 60 58 58 54 45 54 50 36 35 37
36 32 34 30 38 33 31 33 38 39 34 38 37 37 40 47 41 41 43 48 52 54 57 57 57 57 56 56 58 59 60 58 57 56 59 59 59 58 57 58 58 59 61 56 53 52 50 49 47 49 48 36 44 44
30 31 33 33 33 34 36 31 32 34 37 34 38 43 44 42 36 35 45 50 53 55 55 56 55 56 56 59 58 58 58 60 59 57 59 59 58 56 54 53 52 54 59 58 54 47 50 47 42 48 41 43 37 36
28 29 38 47 45 43 37 40 44 38 33 32 37 36 36 32 33 43 51 54 56 59 61 60 60 59 58 58 59 62 62 60 60 60 61 59 59 61 59 55 54 58 61 58 55 47 44 42 39 42 41 38 37 37
36 37 30 36 37 41 33 36 33 33 36 43 42 33 33 35 40 50 52 55 58 60 60 60 61 62 60 60 58 56 55 56 55 54 54 55 57 57 57 58 58 38 56 55 50 45 46 42 39 37 36 37 36 37
34 40 38 31 33 35 35 35 38 44 46 44 36 39 40 49 51 51 49 51 54 54 54 53 54 58 58 57 56 54 52 51 50 47 44 47 50 51 54 55 55 53 53 51 34 39 42 40 38 36 35 34 35 34
34 42 36 31 32 34 37 42 41 44 47 49 51 48 48 49 49 50 49 49 49 47 42 48 50 47 41 45 46 48 50 51 52 49 45 46 50 54 51 46 47 48 48 39 44 47 31 34 33 33 33 34 34 34
42 40 35 37 34 34 34 35 36 40 39 36 34 37 43 46 49 49 50 51 46 35 35 35 35 35 35 41 38 38 40 37 42 52 54 53 46 40 38 39 39 38 37 37 37 37 36 34 34 34 34 34 34 34
37 33 34 32 30 31 34 32 34 32 32 33 32 33 33 35 35 48 48 39 35 35 34 36 34 38 39 46 38 42 40 48 46 44 43 47 48 40 43 46 38 36 35 34 34 35 35 34 34 34 34 33 33 33
31 33 33 32 31 32 33 32 37 32 33 35 32 32 33 35 34 42 48 42 36 38 40 38 37 36 38 39 42 42 41 47 38 38 37 38 38 39 43 38 35 35 35 35 35 35 34 33 33 33 33 33 32 32
MSLP
1006.96 1007.90 1008.93 1009.69 1010.40 1011.03 1011.50 1011.72 1011.95 1012.32 1012.33 1012.36 1012.40 1012.85 1013.38 1013.62 1013.64 1012.87 1014.23 1014.22 1014.03 1016.92 1020.63 1020.95 1020.66 1020.55 1020.37 1019.61 1019.61 1021.59 1021.27 1021.31 1020.55 1020.89 1021.63 1022.32 1022.99 1023.99 1024.59 1025.24 1025.46 1025.69 1025.89 1025.95 1025.55 1025.34 1026.50 1026.43 1025.19 1025.18 1025.86 1025.37 1024.55 1023.51
1007.26 1008.20 1009.04 1009.74 1010.41 1010.99 1011.27 1011.49 1011.79 1011.98 1012.03 1012.10 1012.56 1012.95 1013.32 1013.60 1013.58 1013.19 1014.22 1015.09 1015.44 1016.71 1021.55 1022.42 1022.56 1022.72 1022.60 1022.15 1021.19 1021.52 1021.40 1021.53 1021.97 1021.67 1022.02 1022.32 1023.20 1024.42 1024.81 1025.74 1026.37 1027.36 1028.62 1028.23 1027.75 1027.34 1027.19 1027.03 1026.60 1026.12 1025.61 1024.78 1023.95 1023.08
1007.52 1008.42 1009.22 1009.71 1010.50 1010.90 1011.10 1011.27 1011.60 1011.79 1011.98 1012.26 1012.69 1012.97 1013.31 1013.91 1013.73 1013.58 1014.87 1015.92 1016.19 1018.01 1020.88 1022.02 1023.08 1023.29 1022.87 1022.82 1022.69 1021.35 1022.21 1022.33 1022.74 1022.35 1022.56 1023.15 1024.40 1025.40 1025.85 1027.42 1027.95 1028.96 1029.53 1028.92 1028.41 1028.12 1027.53 1027.01 1026.16 1025.51 1024.72 1024.11 1023.37 1022.64
1007.76 1008.62 1009.20 1009.83 1010.52 1010.81 1010.93 1011.21 1011.57 1011.88 1012.03 1012.54 1012.67 1013.11 1013.72 1014.11 1014.34 1014.36 1014.86 1014.85 1014.83 1016.69 1020.24 1023.92 1024.04 1023.54 1023.22 1022.88 1022.62 1022.27 1022.77 1023.27 1023.06 1022.76 1022.91 1023.74 1025.05 1026.65 1027.87 1029.35 1030.10 1030.91 1030.51 1029.92 1028.99 1028.01 1026.92 1026.04 1025.39 1024.98 1024.29 1023.51 1022.82 1022.37
1008.05 1008.65 1009.30 1009.97 1010.54 1010.77 1010.98 1011.31 1011.84 1011.91 1012.40 1012.63 1013.03 1013.65 1014.28 1014.45 1014.74 1015.28 1015.68 1015.73 1015.78 1015.64 1019.63 1022.88 1023.57 1024.29 1023.95 1023.73 1023.47 1023.23 1023.06 1023.03 1023.13 1023.50 1024.09 1025.08 1026.45 1027.61 1028.60 1029.94 1031.02 1031.60 1031.30 1030.72 1029.33 1028.59 1028.10 1026.60 1025.63 1025.13 1023.92 1022.81 1022.31 1022.02
1008.26 1008.88 1009.45 1010.10 1010.55 1010.81 1011.11 1011.69 1012.03 1012.33 1012.81 1013.30 1013.64 1014.34 1014.83 1014.97 1014.99 1013.99 1015.95 1017.13 1016.57 1017.08 1018.29 1021.80 1024.69 1024.73 1024.63 1024.41 1024.29 1024.07 1023.98 1024.03 1024.02 1024.31 1025.10 1026.84 1028.15 1028.36 1029.16 1030.78 1031.86 1031.65 1031.20 1030.67 1029.86 1028.89 1028.14 1026.81 1025.68 1024.23 1023.22 1022.31 1021.76 1021.70
1008.56 1009.10 1009.58 1010.24 1010.61 1010.96 1011.45 1012.07 1012.36 1012.93 1013.51 1014.00 1014.47 1015.24 1015.51 1015.39 1015.35 1016.10 1017.23 1017.20 1017.64 1017.01 1018.55 1021.51 1023.63 1024.94 1024.95 1024.65 1024.46 1024.66 1024.83 1024.85 1024.73 1025.33 1026.60 1027.11 1027.94 1028.71 1030.62 1031.70 1031.99 1031.55 1030.94 1030.13 1029.43 1028.28 1026.59 1025.68 1024.64 1023.47 1022.43 1021.63 1021.42 1021.40
1008.85 1009.23 1009.84 1010.45 1010.86 1011.26 1011.89 1012.44 1012.93 1013.57 1014.13 1014.47 1015.08 1015.46 1015.58 1015.63 1016.46 1017.36 1018.56 1018.51 1018.32 1017.34 1018.54 1020.97 1023.56 1024.32 1024.92 1024.14 1024.60 1024.59 1024.52 1025.03 1025.90 1026.09 1027.20 1027.65 1028.43 1029.45 1031.21 1032.23 1032.06 1031.50 1030.65 1029.74 1028.36 1027.27 1026.47 1025.66 1024.63 1023.40 1022.29 1021.51 1021.40 1021.54
1009.07 1009.51 1010.20 1010.75 1011.20 1011.80 1012.44 1012.85 1013.47 1014.06 1014.50 1014.83 1015.31 1015.51 1015.50 1016.38 1017.40 1018.91 1019.52 1018.68 1017.73 1017.79 1018.88 1020.43 1021.73 1023.32 1024.63 1024.61 1024.61 1024.84 1024.71 1025.46 1026.07 1026.22 1027.26 1027.98 1029.14 1030.81 1032.23 1032.32 1032.10 1031.56 1030.70 1029.42 1028.07 1027.55 1026.81 1026.24 1025.36 1024.47 1023.56 1022.66 1022.37 1022.32
1009.31 1009.95 1010.59 1011.14 1011.67 1012.32 1012.87 1013.54 1013.95 1014.66 1015.22 1015.42 1015.73 1016.01 1017.70 1018.78 1019.60 1019.50 1019.41 1018.68 1018.61 1019.15 1019.89 1020.38 1021.30 1022.63 1023.37 1023.76 1024.52 1024.68 1025.09 1025.19 1025.67 1027.16 1027.57 1028.64 1030.15 1031.32 1032.13 1032.26 1032.10 1031.43 1030.12 1029.04 1028.33 1028.04 1027.76 1027.38 1026.61 1025.78 1025.14 1024.56 1024.00 1023.68
1009.61 1010.36 1010.97 1011.60 1012.23 1013.00 1013.62 1014.18 1014.71 1015.08 1015.48 1015.01 1016.03 1017.74 1018.87 1019.73 1019.03 1019.24 1020.24 1020.09 1019.97 1020.48 1021.18 1021.50 1021.97 1022.67 1024.02 1023.59 1024.29 1024.86 1025.12 1025.43 1025.51 1027.25 1026.98 1028.37 1030.05 1030.90 1031.82 1031.88 1031.73 1031.09 1029.99 1029.37 1028.88 1028.68 1028.49 1028.25 1027.88 1027.11 1026.41 1025.96 1025.55 1025.32
1010.16 1010.88 1011.66 1012.16 1012.92 1013.59 1014.23 1014.46 1014.39 1014.35 1015.15 1015.16 1015.78 1017.87 1018.60 1018.56 1019.26 1020.09 1020.74 1020.21 1019.47 1020.56 1021.55 1021.76 1022.40 1023.30 1024.51 1024.53 1024.59 1025.49 1025.33 1025.82 1026.06 1027.33 1027.33 1028.24 1029.55 1030.26 1031.22 1031.55 1031.36 1031.05 1030.61 1029.80 1029.24 1028.67 1028.44 1028.21 1028.11 1027.90 1027.53 1027.09 1026.79 1026.78
1010.73 1011.48 1012.17 1012.82 1013.60 1014.01 1014.37 1014.59 1014.68 1015.08 1015.12 1015.17 1015.89 1017.52 1018.14 1019.34 1019.49 1019.42 1019.57 1019.62 1019.83 1020.26 1021.12 1022.03 1022.65 1023.53 1024.70 1024.71 1025.16 1025.30 1025.65 1025.94 1026.62 1026.91 1027.35 1028.44 1029.17 1029.78 1030.84 1031.14 1031.03 1030.74 1030.47 1030.22 1029.99 1029.52 1028.77 1028.59 1028.48 1028.33 1028.18 1028.21 1028.00 1027.96
1011.47 1012.14 1012.82 1013.50 1014.07 1014.57 1015.03 1015.44 1015.70 1015.67 1015.48 1015.85 1016.75 1018.49 1018.78 1019.31 1018.97 1018.43 1017.74 1018.06 1019.03 1019.68 1020.70 1021.53 1022.19 1023.05 1024.29 1024.83 1025.35 1025.39 1025.82 1026.06 1026.09 1026.69 1027.63 1028.04 1028.81 1029.61 1030.03 1030.39 1030.20 1030.25 1030.12 1029.96 1030.01 1029.95 1029.53 1029.05 1028.88 1028.79 1028.70 1028.56 1028.54 1028.54
1012.19 1013.00 1013.75 1014.51 1014.78 1015.30 1015.73 1016.09 1016.29 1015.66 1016.32 1017.07 1017.44 1018.62 1019.37 1019.82 1019.67 1019.51 1019.18 1018.90 1019.62 1020.08 1020.62 1021.57 1022.39 1023.20 1024.20 1025.15 1025.18 1025.59 1025.80 1025.33 1025.13 1025.56 1026.86 1027.70 1028.74 1029.42 1029.86 1030.10 1030.25 1030.39 1030.33 1030.13 1029.93 1029.69 1029.69 1029.65 1029.30 1029.21 1029.14 1029.10 1029.07 1029.19
1012.70 1013.38 1014.87 1015.25 1015.56 1015.98 1016.26 1016.38 1016.39 1016.83 1017.90 1018.56 1019.07 1019.80 1019.90 1019.93 1020.06 1019.49 1019.31 1019.63 1020.35 1020.55 1020.67 1021.13 1022.16 1023.24 1024.02 1024.23 1024.59 1024.78 1024.46 1024.21 1024.62 1025.22 1026.49 1027.86 1028.69 1029.28 1029.84 1030.23 1030.49 1030.66 1030.52 1030.33 1030.14 1029.99 1029.72 1029.55 1029.40 1029.33 1029.36 1029.40 1029.42 1029.47
1012.87 1014.35 1015.57 1015.73 1015.99 1016.35 1016.50 1016.58 1017.59 1019.02 1019.63 1020.02 1020.47 1020.06 1019.69 1019.99 1019.79 1019.93 1020.05 1020.23 1020.71 1020.49 1020.88 1021.39 1022.30 1023.14 1023.80 1023.83 1023.86 1023.76 1023.82 1024.05 1024.65 1025.83 1027.03 1027.92 1028.74 1029.41 1029.98 1030.45 1030.68 1030.72 1030.60 1030.62 1030.51 1030.30 1030.08 1029.84 1029.53 1029.28 1029.29 1029.32 1029.33 1029.45
1013.72 1015.31 1015.84 1015.86 1015.72 1016.10 1017.38 1017.98 1019.27 1020.65 1021.31 1021.29 1021.14 1021.04 1020.49 1020.11 1020.14 1020.66 1021.16 1021.24 1020.83 1021.13 1021.21 1021.81 1022.59 1022.89 1023.11 1022.88 1023.42 1024.16 1024.37 1024.78 1025.62 1026.48 1027.37 1028.29 1029.02 1029.71 1030.14 1030.46 1030.79 1030.81 1030.80 1030.77 1030.69 1030.42 1030.18 1029.86 1029.46 1029.33 1029.40 1029.51 1029.16 1029.34
1014.59 1015.22 1015.66 1015.60 1015.60 1016.67 1018.87 1020.28 1020.41 1021.43 1022.39 1022.20 1021.67 1021.19 1021.22 1021.09 1021.33 1021.54 1021.78 1021.84 1021.80 1021.91 1021.97 1022.18 1022.49 1022.56 1022.78 1023.07 1023.39 1024.23 1024.73 1025.34 1026.14 1027.11 1028.05 1028.78 1029.37 1029.97 1030.42 1030.75 1031.01 1030.94 1030.96 1030.95 1030.86 1030.65 1030.33 1030.23 1030.07 1029.91 1029.89 1029.86 1029.51 1029.61
1015.57 1015.98 1016.15 1016.08 1015.98 1017.82 1020.21 1021.23 1021.24 1021.37 1022.23 1022.51 1021.93 1021.97 1021.92 1021.83 1021.99 1022.15 1022.13 1022.00 1021.91 1021.94 1022.41 1022.63 1022.77 1023.03 1023.26 1023.56 1023.88 1024.58 1025.15 1025.89 1026.54 1027.48 1028.44 1029.10 1029.52 1030.03 1030.26 1030.58 1030.57 1030.98 1030.82 1031.01 1030.88 1031.11 1030.40 1030.20 1030.27 1030.26 1030.54 1030.51 1030.26 1030.21
1015.40 1016.66 1016.62 1016.52 1018.13 1019.36 1020.83 1021.45 1021.64 1022.15 1022.74 1022.69 1022.59 1022.45 1022.62 1022.63 1022.50 1022.62 1022.73 1022.61 1022.44 1022.45 1022.83 1023.16 1023.70 1024.48 1024.53 1024.60 1024.77 1025.29 1026.00 1026.61 1027.01 1027.56 1028.23 1028.85 1029.39 1029.69 1029.94 1030.37 1030.73 1030.84 1030.72 1030.71 1030.71 1030.90 1030.93 1030.65 1030.74 1030.73 1030.92 1031.24 1031.21 1030.94
1016.98 1017.09 1017.92 1018.61 1019.99 1021.07 1022.06 1022.55 1022.13 1022.54 1022.75 1022.91 1022.75 1022.54 1022.92 1023.21 1023.17 1023.31 1023.37 1023.14 1023.00 1023.21 1023.33 1023.72 1024.35 1024.99 1025.43 1025.60 1025.97 1026.45 1026.84 1027.13 1027.89 1028.47 1028.84 1029.14 1029.41 1029.71 1029.86 1030.07 1030.39 1030.46 1030.69 1030.87 1031.00 1031.16 1031.27 1031.41 1031.78 1031.67 1031.72 1032.13 1031.92 1031.92
1017.16 1017.76 1019.43 1020.48 1021.54 1022.49 1023.78 1023.27 1022.50 1022.59 1022.98 1023.20 1023.02 1023.24 1023.58 1023.69 1023.88 1024.15 1023.75 1023.38 1023.49 1023.83 1024.00 1024.43 1025.01 1025.21 1025.60 1026.24 1026.66 1027.09 1027.56 1027.83 1028.13 1028.54 1029.08 1029.11 1029.29 1029.78 1030.02 1030.26 1030.50 1030.77 1030.85 1031.02 1031.44 1031.55 1031.71 1032.44 1032.29 1032.47 1032.43 1032.63 1032.95 1033.12
1018.39 1020.34 1021.72 1022.21 1022.78 1023.82 1023.80 1023.42 1022.86 1022.91 1023.09 1023.23 1023.54 1023.83 1024.04 1024.23 1024.45 1024.07 1023.66 1023.53 1023.66 1024.10 1024.46 1025.04 1025.38 1025.75 1026.22 1026.59 1026.82 1027.20 1027.78 1028.05 1028.07 1028.56 1028.95 1029.14 1029.39 1029.79 1030.14 1030.27 1030.55 1030.84 1031.02 1031.12 1031.66 1031.91 1032.20 1032.50 1032.77 1032.75 1033.03 1033.31 1033.58 1033.66
1020.26 1022.72 1022.89 1023.12 1023.04 1023.48 1023.63 1023.40 1022.98 1023.00 1023.26 1023.64 1023.95 1024.40 1024.58 1024.50 1024.31 1024.05 1023.47 1023.25 1023.41 1023.65 1024.00 1024.68 1025.08 1025.40 1025.57 1026.00 1026.39 1026.69 1027.41 1027.82 1027.97 1028.23 1028.65 1029.04 1029.27 1029.52 1029.99 1030.48 1030.81 1031.07 1031.24 1031.59 1031.99 1032.37 1032.90 1032.97 1033.14 1033.33 1033.45 1033.56 1033.69 1033.62
1021.77 1022.99 1022.79 1022.45 1022.70 1022.42 1022.68 1022.90 1022.88 1022.87 1023.20 1023.73 1024.07 1024.39 1024.61 1024.41 1024.05 1023.49 1022.69 1022.34 1022.54 1022.85 1023.33 1023.95 1024.46 1024.94 1025.30 1025.52 1025.78 1026.24 1026.85 1027.53 1027.87 1028.05 1028.36 1028.93 1029.20 1029.50 1029.91 1030.26 1030.62 1030.91 1031.13 1031.52 1031.91 1032.52 1032.93 1033.16 1033.29 1033.49 1033.68 1033.81 1033.92 1034.05
1022.03 1022.45 1022.20 1021.89 1021.55 1021.80 1022.35 1022.54 1022.34 1022.62 1022.99 1023.35 1023.76 1024.27 1024.24 1023.92 1023.18 1022.48 1022.08 1021.97 1021.96 1022.26 1022.98 1023.70 1024.07 1024.48 1024.83 1025.44 1026.04 1026.25 1026.83 1027.60 1027.82 1028.11 1028.50 1029.10 1029.40 1029.48 1029.70 1029.99 1030.26 1030.48 1030.35 1031.08 1031.69 1032.29 1032.91 1033.24 1033.40 1033.55 1033.59 1033.78 1033.98 1033.95
1021.37 1021.53 1021.63 1021.84 1021.78 1021.85 1022.13 1022.29 1022.48 1022.17 1022.29 1022.44 1022.92 1023.20 1022.93 1022.31 1021.93 1021.80 1021.81 1021.97 1022.14 1022.56 1023.17 1023.66 1024.05 1024.42 1024.75 1025.35 1026.18 1027.03 1027.69 1028.25 1028.82 1029.28 1029.52 1029.71 1029.77 1029.84 1029.96 1030.04 1030.16 1031.44 1030.65 1030.97 1031.54 1032.14 1032.50 1032.88 1033.22 1033.48 1033.61 1033.58 1033.53 1033.52
1021.24 1021.07 1021.59 1022.07 1022.25 1022.23 1021.84 1021.68 1021.38 1021.23 1021.35 1021.66 1021.91 1021.87 1021.88 1021.77 1021.90 1022.01 1022.63 1022.81 1023.14 1023.47 1023.70 1024.05 1024.56 1024.73 1025.20 1025.71 1026.43 1027.20 1027.57 1028.12 1028.42 1028.66 1028.91 1029.16 1029.39 1029.61 1029.77 1029.85 1029.90 1030.33 1030.59 1030.85 1032.19 1031.91 1032.11 1032.51 1032.88 1033.04 1033.12 1033.13 1033.02 1032.97
1021.02 1021.02 1021.34 1021.93 1022.08 1021.94 1021.97 1021.62 1021.76 1021.75 1021.62 1021.53 1021.58 1021.83 1021.94 1022.13 1022.41 1022.80 1022.97 1023.32 1023.58 1024.00 1024.38 1024.67 1024.92 1025.52 1026.10 1026.20 1026.41 1026.90 1027.09 1027.25 1027.29 1027.68 1028.20 1028.45 1028.49 1028.57 1029.17 1029.61 1029.96 1030.11 1030.36 1030.99 1031.62 1031.88 1032.90 1032.94 1032.95 1033.11 1033.11 1032.86 1032.67 1032.54
1020.57 1020.95 1021.26 1021.54 1022.20 1022.69 1023.01 1023.12 1022.94 1022.84 1022.88 1022.73 1023.01 1022.71 1022.73 1022.60 1022.54 1022.93 1023.09 1023.30 1023.91 1024.48 1025.09 1025.75 1026.14 1026.56 1026.97 1026.79 1027.02 1027.02 1027.43 1027.74 1027.61 1027.57 1027.77 1027.94 1028.32 1028.78 1029.30 1029.73 1030.12 1030.51 1030.88 1031.25 1031.64 1032.01 1032.42 1032.71 1032.81 1032.78 1032.69 1032.47 1032.23 1032.11
1020.90 1021.07 1021.20 1021.86 1022.90 1023.60 1023.54 1023.49 1023.40 1023.29 1023.43 1023.34 1023.59 1023.63 1023.73 1023.40 1023.06 1022.84 1023.05 1023.74 1024.30 1024.81 1025.35 1026.04 1026.55 1026.67 1026.88 1026.82 1026.79 1026.68 1026.31 1026.45 1026.96 1027.30 1027.56 1027.89 1028.37 1029.05 1029.28 1029.16 1029.90 1030.35 1030.80 1031.15 1031.49 1031.83 1032.12 1032.31 1032.30 1032.24 1032.15 1032.02 1031.86 1031.69
1021.44 1021.50 1021.76 1022.23 1022.96 1023.31 1023.59 1023.48 1023.36 1023.70 1023.81 1023.84 1024.08 1024.18 1024.14 1023.77 1023.49 1022.97 1022.85 1023.18 1023.41 1023.68 1024.27 1024.74 1025.14 1025.58 1025.90 1026.11 1026.20 1026.11 1026.22 1026.41 1026.90 1027.04 1027.37 1027.67 1027.90 1028.31 1028.53 1029.31 1029.91 1030.20 1030.42 1030.65 1030.92 1031.20 1031.40 1031.52 1031.57 1031.62 1031.62 1031.52 1031.40 1031.24
Wind_Speed
23 22 20 18 16 14 12 10 8 8 8 9 10 14 15 11 8 4 6 5 7 10 13 12 12 7 3 2 3 5 5 2 1 6 5 4 5 3 4 7 5 7 5 5 4 4 6 12 3 3 5 7 9 10
23 21 19 17 14 13 11 8 7 6 8 11 14 14 14 9 6 10 12 11 10 11 15 16 17 11 7 8 3 3 6 5 3 3 3 3 6 4 6 4 11 5 5 4 6 4 7 5 1 3 4 8 8 9
22 20 18 16 13 11 9 6 6 8 11 13 15 13 10 5 4 12 15 16 15 16 14 9 11 14 10 7 4 1 5 5 6 6 5 5 9 5 4 7 2 5 8 3 3 6 7 5 5 5 8 9 11 9
22 20 17 14 12 10 8 7 8 11 15 15 16 15 16 21 21 14 9 5 8 10 8 11 10 14 13 13 15 17 16 11 7 4 7 6 6 5 6 5 3 3 7 6 2 2 8 3 5 9 13 12 10 9
21 19 16 13 10 9 9 10 11 15 16 19 22 21 18 19 19 13 9 7 3 4 8 10 15 14 13 12 14 12 11 7 7 7 7 7 5 2 5 3 3 4 3 3 3 9 7 10 11 16 14 12 10 8
20 18 15 13 11 11 12 13 16 19 20 20 20 20 20 13 2 3 6 9 15 12 9 6 5 10 11 12 13 12 9 8 7 5 6 6 3 3 4 3 4 8 7 7 5 12 13 16 17 15 12 11 8 5
19 17 16 14 13 14 15 17 20 21 19 18 16 11 7 7 6 3 4 10 2 6 7 8 7 5 4 8 7 9 9 6 5 6 7 5 5 2 3 3 10 11 10 6 8 11 8 12 12 12 9 6 1 3
18 18 17 16 16 17 19 21 23 22 19 18 19 21 22 26 19 10 8 6 6 6 5 6 6 6 3 6 5 2 5 5 5 5 3 4 3 3 4 7 10 11 9 5 13 6 8 11 11 12 10 8 9 8
19 19 18 18 19 20 21 23 24 19 22 21 18 18 6 6 4 5 5 9 5 5 5 4 8 6 4 4 4 3 1 4 1 6 4 1 4 6 3 8 9 10 8 10 10 11 13 13 14 13 12 12 10 9
21 21 20 21 22 22 22 21 20 19 14 12 5 5 4 4 1 3 3 3 5 4 5 7 7 8 8 5 3 4 2 2 3 5 1 4 4 7 4 4 5 7 7 10 12 14 14 14 14 14 13 12 11 11
22 21 21 21 22 21 20 17 13 13 9 2 4 4 7 1 4 4 4 5 2 5 4 3 10 11 2 4 5 3 3 1 2 4 2 4 3 6 5 3 5 7 9 10 10 9 9 9 11 12 12 12 11 11
22 22 22 22 18 16 13 8 3 3 3 6 11 6 4 1 4 7 3 3 2 6 6 10 12 8 5 1 3 1 3 2 4 3 2 4 4 8 7 2 5 6 8 11 12 12 12 13 12 11 12 12 12 12
22 21 21 17 14 13 13 12 15 18 10 4 4 5 1 3 7 3 5 4 6 6 10 9 11 5 5 2 3 2 3 2 7 3 3 3 8 8 10 6 3 4 5 7 10 12 11 13 13 13 12 12 12 13
23 21 18 15 14 14 16 16 8 3 2 4 4 5 3 2 3 2 5 8 7 12 16 12 8 4 3 3 3 3 3 5 4 4 4 7 10 9 7 4 6 7 7 7 7 8 11 12 12 12 12 11 11 12
23 22 20 16 16 14 12 9 2 3 4 4 4 5 4 5 6 7 8 11 14 13 13 10 6 5 4 4 2 4 5 4 5 4 7 10 12 10 8 5 6 6 5 5 6 6 6 7 10 11 12 13 12 11
23 16 7 12 14 12 11 5 3 3 4 4 5 5 7 9 8 9 12 14 11 11 7 4 4 4 3 4 5 5 7 4 4 7 10 12 12 10 8 6 5 5 6 5 6 5 6 6 5 5 6 8 9 11
12 6 8 15 17 13 5 3 4 7 5 5 4 5 4 10 10 10 11 11 8 7 5 4 4 3 4 3 4 2 2 5 10 12 11 13 11 10 7 6 5 4 5 5 5 5 5 4 4 6 8 8 7 7
10 10 7 3 5 6 5 6 5 5 7 5 5 3 4 7 11 11 9 7 5 4 2 3 4 4 4 5 5 5 6 8 10 10 10 11 10 8 5 6 3 3 3 4 4 4 4 5 4 5 6 6 4 7
12 8 8 9 6 6 6 5 4 6 6 5 4 7 8 8 9 9 8 6 6 5 5 3 3 2 3 2 8 9 9 10 10 10 10 10 9 7 6 4 2 1 4 3 4 4 3 4 4 5 6 6 6 7
19 15 11 10 6 6 6 4 1 5 4 3 6 8 7 7 8 7 6 5 5 3 3 2 3 4 5 5 7 9 9 10 10 9 9 7 6 6 5 3 1 2 1 2 2 3 3 4 5 5 6 6 7 7
7 6 11 7 5 7 5 3 5 4 5 3 8 7 7 6 7 7 6 3 3 2 3 4 6 6 6 6 8 8 9 9 8 7 7 7 5 4 4 3 3 1 0 2 2 4 3 4 5 5 6 7 6 6
3 5 5 6 6 5 5 5 4 4 3 6 5 5 7 6 5 4 3 2 3 3 4 7 7 8 8 8 8 9 8 8 9 5 5 5 5 4 3 3 4 2 1 1 2 2 3 5 6 6 5 5 6 7
5 7 6 5 7 6 3 3 4 2 5 6 7 5 3 3 3 3 2 2 4 4 6 8 8 8 9 10 8 9 8 7 5 4 5 3 3 2 1 3 2 1 1 2 1 2 3 3 2 4 5 6 7 6
8 7 6 4 5 4 2 2 2 4 5 5 4 4 5 3 4 3 3 5 5 8 8 10 8 7 6 8 7 7 7 5 4 4 4 4 4 4 3 3 2 2 2 2 0 2 2 2 2 5 5 2 5 6
7 5 3 5 2 5 4 3 3 3 3 3 5 3 4 4 4 5 4 5 9 9 10 9 8 7 7 7 7 7 9 7 7 6 6 5 4 4 4 3 3 3 2 2 3 2 3 2 2 4 5 2 7 9
5 1 1 4 4 4 6 5 5 5 6 3 3 5 4 4 4 5 5 8 11 12 10 10 10 9 7 5 7 7 8 7 7 6 6 6 6 5 5 5 5 5 5 4 4 3 5 4 3 6 4 7 4 7
5 4 3 2 4 5 5 3 8 5 4 5 6 6 5 5 6 4 3 7 9 9 10 10 10 9 7 7 5 5 7 8 8 7 5 6 6 5 5 5 6 4 3 4 5 3 4 4 4 6 5 5 6 5
3 6 8 7 3 2 4 5 4 5 5 6 8 6 9 8 4 3 3 6 5 7 8 8 8 7 6 7 7 6 6 4 7 6 4 3 3 4 6 5 4 3 2 3 4 4 4 5 5 6 6 7 7 5
3 5 6 3 2 3 4 4 5 3 6 8 6 5 5 3 2 3 4 5 6 7 8 8 7 5 7 8 8 8 8 9 13 12 11 7 6 6 7 7 7 6 6 6 5 5 6 6 7 6 7 6 6 6
5 7 4 3 3 3 2 1 3 4 2 3 2 3 3 2 3 3 5 6 7 7 4 6 6 7 6 8 9 8 8 9 9 8 10 10 8 4 6 5 5 5 4 3 5 4 4 3 3 3 4 6 5 6
8 4 3 3 2 3 3 2 1 3 2 2 4 2 2 2 2 3 3 5 6 6 6 4 4 4 5 6 7 7 6 6 6 8 6 2 5 5 6 6 5 5 5 5 5 4 4 4 4 5 6 8 9 9
3 2 3 4 3 1 0 2 1 2 2 2 1 2 1 1 1 4 5 5 5 4 5 6 5 6 9 6 3 3 2 6 9 9 9 6 5 5 5 5 6 5 6 5 5 4 4 6 6 8 9 12 12 12
3 2 3 4 4 3 2 2 2 2 1 1 1 1 0 2 4 2 3 5 6 8 9 10 8 6 6 10 8 6 6 2 1 5 7 7 7 8 6 5 5 5 6 6 5 5 8 9 9 9 10 11 12 13
Wind_Direction
151 153 158 164 170 178 188 197 216 232 243 209 172 157 156 175 213 125 89 35 113 94 62 56 41 64 124 324 108 117 184 152 105 65 74 69 60 73 75 43 15 31 320 34 326 89 98 13 203 341 28 344 328 342
153 154 158 162 167 180 184 196 214 224 195 153 145 147 144 169 188 108 92 86 93 78 107 87 67 47 23 3 68 109 86 72 41 110 138 124 95 48 49 65 25 47 11 356 10 42 3 1 5 338 279 332 334 332
151 152 159 155 169 176 180 183 201 181 153 139 139 136 116 124 88 115 115 119 104 103 83 52 29 30 50 29 353 113 86 80 65 34 75 79 81 360 37 38 84 61 20 6 317 357 336 316 295 253 325 329 324 323
149 153 153 153 170 169 164 164 166 150 131 133 123 118 120 121 119 118 112 104 96 103 89 67 62 55 49 66 70 77 103 94 118 92 73 66 87 20 48 80 42 350 318 326 261 341 310 197 9 347 333 320 318 322
150 149 147 153 162 156 152 143 146 129 128 123 116 114 118 106 103 102 81 58 39 104 114 122 84 47 57 64 72 87 96 115 92 84 84 73 74 43 94 116 53 344 340 344 355 346 323 302 337 325 313 317 319 315
147 146 144 148 150 146 139 137 131 124 122 121 116 118 122 132 335 102 81 50 91 122 117 97 103 59 67 79 78 78 84 72 70 70 93 77 66 329 47 53 342 338 330 243 277 321 298 286 287 295 315 306 305 319
145 145 137 141 140 139 135 135 127 121 112 107 95 93 85 57 56 18 85 127 174 115 101 115 118 91 71 94 84 89 78 64 68 79 48 79 60 22 72 29 321 338 339 323 288 287 328 349 340 326 324 327 102 75
146 137 135 136 133 130 132 130 125 121 119 115 125 128 124 114 126 80 38 38 299 88 81 98 99 146 272 136 107 331 100 94 18 92 118 58 60 43 58 328 337 349 350 340 323 340 343 357 350 2 1 55 63 65
140 132 131 132 133 131 134 130 130 133 134 135 144 149 124 39 66 95 298 290 47 58 103 116 146 131 173 93 121 127 71 76 6 77 73 78 29 46 326 324 336 343 350 328 7 14 11 14 12 12 14 23 44 51
132 128 126 124 124 123 121 124 125 128 145 155 189 62 51 57 304 233 182 56 39 48 26 77 100 121 165 160 91 130 50 81 128 67 189 62 81 86 30 340 338 327 350 15 29 21 15 12 4 17 16 14 21 20
127 123 121 119 117 120 117 113 137 161 197 104 72 77 90 130 215 49 57 63 100 87 80 113 125 131 32 136 114 20 106 139 161 96 267 117 119 94 106 344 29 8 17 44 42 57 44 31 18 6 19 16 19 16
126 122 125 123 113 111 118 94 20 155 40 90 99 108 160 107 58 75 46 116 96 110 136 139 134 115 98 315 105 93 89 206 99 167 112 106 130 106 99 124 40 38 33 29 33 40 43 44 34 32 21 22 23 22
124 122 120 112 109 100 82 75 79 109 159 126 81 69 145 323 56 132 147 122 130 138 140 138 136 129 146 94 88 136 94 97 148 142 110 130 129 122 125 144 112 67 64 54 43 24 41 52 49 38 40 31 31 34
122 116 109 104 102 103 109 105 86 71 19 68 88 64 70 61 76 50 80 105 105 131 143 136 126 103 123 111 151 127 99 167 171 160 171 147 144 133 123 111 92 71 54 55 68 55 28 45 52 52 45 39 40 37
111 108 106 104 108 109 109 108 85 41 53 66 52 72 73 88 90 89 102 120 125 127 130 122 99 95 101 116 158 131 174 201 195 167 155 141 141 144 136 123 81 55 37 41 30 40 68 37 50 55 55 50 47 43
113 87 75 113 109 115 121 122 53 60 57 56 58 83 122 108 117 125 121 118 133 144 133 96 104 121 126 141 162 195 173 173 159 125 137 140 145 142 132 116 75 43 22 28 39 29 43 46 41 35 50 41 46 44
95 110 145 114 107 99 69 77 59 46 53 49 60 91 122 123 127 123 133 132 137 158 97 108 111 86 118 149 160 159 113 108 122 130 138 144 147 141 128 100 78 45 39 32 20 32 21 7 8 34 38 37 49 47
107 125 121 114 183 81 46 35 71 73 68 51 85 89 114 113 125 124 121 148 154 114 119 76 133 153 155 158 138 131 124 123 127 135 136 141 136 133 133 117 108 58 30 16 5 2 24 10 23 34 29 12 24 45
111 105 80 64 66 84 72 40 24 83 64 93 97 102 108 111 117 121 109 89 89 104 127 101 89 131 116 86 122 136 142 139 137 134 133 138 140 141 137 113 80 19 343 333 357 2 6 39 27 16 23 12 4 38
85 62 63 58 45 78 71 61 303 88 90 112 134 127 115 114 124 121 117 120 107 83 78 74 79 86 107 115 127 139 140 138 140 139 145 149 149 157 160 189 43 9 332 144 170 301 355 48 31 22 28 14 2 6
96 22 33 51 57 55 71 77 66 76 116 107 143 127 124 138 128 120 108 127 91 86 104 109 103 85 84 104 124 121 119 143 152 155 153 156 157 181 152 170 180 171 281 76 21 110 251 36 24 16 19 21 359 3
71 44 72 35 74 64 70 14 85 94 62 131 126 127 121 126 131 103 139 109 97 106 118 122 116 124 127 126 127 131 135 107 82 94 96 99 152 179 186 182 171 174 135 73 60 41 15 32 15 5 11 354 351 357
93 51 50 40 72 56 71 275 92 75 116 146 131 110 127 130 91 177 134 169 109 130 131 120 120 120 122 130 131 124 144 151 153 160 147 185 155 119 163 152 169 202 228 139 29 28 20 23 38 349 5 7 356 348
48 54 46 52 64 93 84 76 126 105 126 140 118 117 129 122 161 189 178 175 165 153 146 146 152 139 142 156 171 168 173 187 184 164 172 182 181 178 201 209 188 216 259 66 318 335 345 358 350 359 4 20 347 319
75 32 49 73 106 119 116 107 95 85 117 115 99 126 141 162 175 190 206 186 173 179 172 167 178 174 180 178 186 185 177 190 198 199 184 201 198 178 164 193 230 251 227 226 247 233 248 274 314 308 323 1 322 332
80 143 134 140 168 139 157 136 151 152 114 98 109 117 162 177 166 219 205 185 182 180 179 176 179 179 194 198 180 182 173 179 192 192 183 176 201 184 194 203 223 231 220 241 249 240 258 270 243 289 322 313 337 327
136 164 177 246 137 126 99 86 136 115 137 148 153 158 162 182 217 224 164 180 181 180 176 178 183 186 189 182 199 171 153 172 185 181 164 170 196 202 210 220 230 243 240 213 238 212 235 270 284 286 295 297 295 290
132 158 152 163 118 151 126 123 155 175 161 160 152 180 182 192 207 149 166 161 171 164 163 171 180 183 173 150 152 140 139 121 95 101 113 147 196 215 225 233 241 113 205 207 182 196 215 221 254 270 271 279 285 267
133 151 122 118 147 177 191 165 186 166 151 165 165 168 184 182 90 128 127 149 148 163 164 162 170 165 148 143 149 158 157 166 174 180 187 193 192 209 207 210 207 201 210 221 181 208 224 220 227 227 251 262 278 287
156 168 116 147 180 165 142 145 106 115 213 159 91 118 126 125 106 107 140 152 163 170 156 177 160 156 166 165 162 169 179 184 188 176 178 195 205 175 172 179 190 191 196 168 215 209 163 216 253 259 267 277 277 280
144 144 109 124 107 58 54 47 53 124 43 49 12 59 86 78 128 156 181 157 126 123 118 130 135 169 180 197 173 169 193 234 244 223 208 158 140 165 175 179 181 175 175 192 209 213 228 249 268 278 274 272 276 281
137 144 141 120 109 95 151 65 88 75 21 47 44 33 47 84 94 167 167 128 120 128 162 154 168 209 204 236 185 251 325 166 192 205 210 204 200 175 185 187 165 166 174 184 193 203 219 247 261 268 277 286 292 293
105 87 89 110 122 152 147 121 85 95 75 161 337 199 288 137 189 251 167 185 180 180 180 188 200 191 190 193 204 208 222 185 159 173 179 192 187 180 171 169 175 178 172 179 184 205 228 238 256 272 284 290 293 295